{"data":{"norad_id":68653,"intl_designator":"2026-075T","name":"QIANFAN-126","alt_names":[],"object_type":"PAYLOAD","status":"ACTIVE","operator":null,"country":"PRC","launch_date":"2026-04-07","launch_site_code":"WSC","launch_vehicle":null,"mission":null,"orbit_class":"UNKNOWN","rcs_meters":null,"size_class":null,"mass_kg":null,"dimensions":null,"purposes":[],"wikipedia_slug":null,"has_3d_model":false,"image_url":null,"decayed_at":null,"tle_current":{"epoch":"2026-05-24T16:52:06.693600Z","epoch_age_seconds":97378,"freshness":"FRESH","line1":"1 68653U 26075T   26144.70285525  .00000049  00000+0  41986-4 0  9993","line2":"2 68653  88.9755 323.3585 0011952 119.5621 240.6734 13.69712337  6648","mean_motion":13.69712337,"eccentricity":0.0011952,"inclination_deg":88.9755,"raan_deg":323.3585,"arg_perigee_deg":119.5621,"mean_anomaly_deg":240.6734,"bstar":4.1986e-5,"rev_number":664,"period_min":105.13156384018,"perigee_km":991.7848693334,"apogee_km":1009.4230116776,"semimajor_km":7378.7409405055,"source":"CELESTRAK","updated_at":"2026-05-25T13:38:07.994742Z"}}}